Location: Cahas Mountain Overlook
(37.0833°N, 80.1000°W)
Time: 06:28:59
(UTC-05:00)

A-11 Canister half - All Passes

Search period start: 19 January 2022 00:00
Search period end: 29 January 2022 00:00
Orbit: 1516 x 1684 km, 47.2° (Epoch: 18 January)

Date Brightness Start Highest point End Pass type
(mag) Time Alt. Az. Time Alt. Az. Time Alt. Az.
19 Jan - 01:03:21 10° WNW 01:12:37 78° SW 01:22:05 10° SE night (unlit)
19 Jan - 03:09:44 10° W 03:16:29 23° SW 03:23:23 10° S night (unlit)
19 Jan - 16:20:13 10° S 16:27:58 29° SE 16:35:33 10° ENE daylight
19 Jan - 18:22:35 10° SW 18:32:04 90° SE 18:41:22 10° ENE visible
19 Jan - 20:28:47 10° W 20:37:44 48° NNW 20:46:38 10° ENE visible
19 Jan - 22:35:16 10° WNW 22:44:13 50° NNE 22:53:13 10° E visible
20 Jan - 00:40:26 10° WNW 00:49:43 82° SW 00:59:10 10° SE night (unlit)
20 Jan - 02:46:37 10° WNW 02:53:39 25° SW 03:00:52 10° S night (unlit)
20 Jan - 15:57:37 10° S 16:05:08 27° SE 16:12:29 10° ENE daylight
20 Jan - 17:59:39 10° SW 18:09:09 86° SE 18:18:28 10° ENE visible
20 Jan - 20:05:45 10° W 20:14:45 49° NNW 20:23:40 10° ENE visible
20 Jan - 22:12:18 10° WNW 22:21:14 49° NNE 22:30:11 10° E visible
21 Jan - 00:17:32 10° WNW 00:26:49 86° SW 00:36:15 10° SE night (unlit)
21 Jan - 02:23:31 10° WNW 02:30:49 27° SW 02:38:17 10° S night (unlit)
21 Jan - 15:35:03 10° S 15:42:18 25° SE 15:49:23 10° ENE daylight
21 Jan - 17:36:44 10° SW 17:46:15 82° SE 17:55:33 10° ENE daylight
21 Jan - 19:42:43 10° W 19:51:46 50° NNW 20:00:43 10° ENE visible
21 Jan - 21:49:20 10° WNW 21:58:14 48° NNE 22:07:09 10° E visible
21 Jan - 23:54:37 10° WNW 00:03:55 90° SSW 00:13:20 10° SE night (unlit)
22 Jan - 02:00:27 10° WNW 02:07:59 29° SW 02:15:41 10° S night (unlit)
22 Jan - 15:12:30 10° S 15:19:28 23° SE 15:26:15 10° E daylight
22 Jan - 17:13:50 10° SW 17:23:21 78° SE 17:32:38 10° ENE daylight
22 Jan - 19:19:41 10° W 19:28:47 52° NNW 19:37:46 10° ENE visible
22 Jan - 21:26:22 10° WNW 21:35:15 47° N 21:44:07 10° E visible
22 Jan - 23:31:42 10° WNW 23:41:00 87° NNE 23:50:24 10° ESE visible
23 Jan - 01:37:24 10° WNW 01:45:09 31° SW 01:53:04 10° S night (unlit)
23 Jan - 14:50:01 10° S 14:56:37 21° SE 15:03:06 10° E daylight
23 Jan - 16:50:56 10° SW 17:00:27 74° SE 17:09:43 10° ENE daylight
23 Jan - 18:56:38 10° W 19:05:48 53° NNW 19:14:49 10° ENE visible
23 Jan - 21:03:23 10° WNW 21:12:16 47° N 21:21:06 10° E visible
23 Jan - 23:08:47 10° WNW 23:18:05 83° NNE 23:27:28 10° ESE visible
24 Jan - 01:14:22 10° WNW 01:22:19 33° SW 01:30:24 10° S night (unlit)
24 Jan - 14:27:35 10° SSE 14:33:48 19° SE 14:39:54 10° E daylight
24 Jan - 16:28:02 10° SW 16:37:34 70° SE 16:46:48 10° ENE daylight
24 Jan - 18:33:37 10° W 18:42:49 55° NNW 18:51:53 10° ENE visible
24 Jan - 20:40:23 10° WNW 20:49:16 46° N 20:58:05 10° E visible
24 Jan - 22:45:52 10° WNW 22:55:10 80° NNE 23:04:31 10° ESE visible
25 Jan - 00:51:21 10° WNW 00:59:29 36° SW 01:07:44 10° SSE night (unlit)
25 Jan - 14:05:11 10° SSE 14:10:58 18° SE 14:16:39 10° E daylight
25 Jan - 16:05:10 10° SW 16:14:40 67° SE 16:23:53 10° ENE daylight
25 Jan - 18:10:34 10° W 18:19:51 56° NNW 18:28:56 10° ENE visible
25 Jan - 20:17:23 10° WNW 20:26:16 46° N 20:35:04 10° ENE visible
25 Jan - 22:22:57 10° WNW 22:32:14 76° NNE 22:41:34 10° ESE visible
26 Jan - 00:28:20 10° WNW 00:36:38 39° SW 00:45:02 10° SSE night (unlit)
26 Jan - 13:42:53 10° SSE 13:48:09 16° SE 13:53:18 10° E daylight
26 Jan - 15:42:18 10° SW 15:51:46 63° SE 16:00:58 10° ENE daylight
26 Jan - 17:47:32 10° W 17:56:53 58° NNW 18:06:01 10° ENE visible
26 Jan - 19:54:22 10° WNW 20:03:16 45° N 20:12:03 10° ENE visible
26 Jan - 22:00:01 10° WNW 22:09:18 73° NNE 22:18:36 10° ESE visible
27 Jan - 00:05:21 10° WNW 00:13:47 41° SW 00:22:20 10° SSE night (unlit)
27 Jan - 13:20:40 10° SSE 13:25:19 14° ESE 13:29:53 10° E daylight
27 Jan - 15:19:27 10° SW 15:28:53 59° SE 15:38:02 10° ENE daylight
27 Jan - 17:24:30 10° WSW 17:33:54 60° NNW 17:43:06 10° ENE daylight
27 Jan - 19:31:22 10° WNW 19:40:15 45° N 19:49:02 10° ENE visible
27 Jan - 21:37:06 10° WNW 21:46:23 70° NNE 21:55:38 10° ESE visible
27 Jan - 23:42:22 10° WNW 23:50:56 44° SW 23:59:36 10° SSE visible
28 Jan - 12:58:38 10° SSE 13:02:29 13° ESE 13:06:18 10° E daylight
28 Jan - 14:56:36 10° SSW 15:06:00 56° SE 15:15:05 10° ENE daylight
28 Jan - 17:01:28 10° WSW 17:10:56 62° NNW 17:20:10 10° ENE daylight
28 Jan - 19:08:21 10° WNW 19:17:15 45° N 19:26:02 10° ENE visible
28 Jan - 21:14:09 10° WNW 21:23:26 68° NNE 21:32:39 10° ESE visible
28 Jan - 23:19:24 10° WNW 23:28:05 47° SW 23:36:50 10° SSE visible
